Time,TemperatureF,DewpointF,PressureIn,WindDirection,WindDirectionDegrees,WindSpeedMPH,WindSpeedGustMPH,Humidity,HourlyPrecipIn,Conditions,Clouds,dailyrainin,SoftwareType,DateUTC
2013-06-23 00:11:00,69.0,65.0,30.01,SW,217,0.0,1.0,88,0.00,,,1.06,,2013-06-23 05:11:00,
2013-06-23 00:22:00,69.0,65.0,30.01,SW,217,0.0,1.0,88,0.00,,,1.06,,2013-06-23 05:22:00,
2013-06-23 00:32:00,69.0,65.0,30.01,SW,217,0.0,1.0,88,0.00,,,1.06,,2013-06-23 05:32:00,
2013-06-23 00:41:00,66.0,64.0,30.00,WSW,241,0.0,1.0,94,0.00,,,1.06,,2013-06-23 05:41:00,
2013-06-23 00:51:00,66.0,65.0,30.00,SSW,197,0.0,3.0,95,0.00,,,1.06,,2013-06-23 05:51:00,
2013-06-23 01:02:00,66.0,65.0,30.01,SSW,192,1.0,3.0,95,0.00,,,1.06,,2013-06-23 06:02:00,
2013-06-23 01:12:00,66.0,65.0,30.01,SSW,192,1.0,3.0,95,0.00,,,1.06,,2013-06-23 06:12:00,
2013-06-23 01:22:00,66.0,65.0,30.02,South,169,1.0,3.0,95,0.00,,,1.06,,2013-06-23 06:22:00,
2013-06-23 01:33:00,66.0,65.0,30.02,SSE,164,1.0,3.0,95,0.00,,,1.06,,2013-06-23 06:33:00,
2013-06-23 01:43:00,66.0,65.0,30.02,SSE,164,1.0,3.0,95,0.00,,,1.06,,2013-06-23 06:43:00,
2013-06-23 01:52:00,66.0,65.0,30.03,SSE,166,0.0,3.0,95,0.00,,,1.06,,2013-06-23 06:52:00,
2013-06-23 02:02:00,66.0,65.0,30.03,SE,139,2.0,4.0,95,0.00,,,1.06,,2013-06-23 07:02:00,
2013-06-23 02:12:00,66.0,65.0,30.03,SE,139,2.0,4.0,95,0.00,,,1.06,,2013-06-23 07:12:00,
2013-06-23 02:22:00,66.0,64.0,30.02,SSE,159,0.0,4.0,94,0.00,,,1.06,,2013-06-23 07:22:00,
2013-06-23 02:34:00,66.0,64.0,30.03,SW,219,1.0,4.0,94,0.00,,,1.06,,2013-06-23 07:34:00,
2013-06-23 02:43:00,66.0,64.0,30.03,SW,219,1.0,4.0,94,0.00,,,1.06,,2013-06-23 07:43:00,
2013-06-23 02:53:00,66.0,65.0,30.02,SSW,213,0.0,4.0,95,0.00,,,1.06,,2013-06-23 07:53:00,
2013-06-23 03:02:00,66.0,65.0,30.03,SW,233,0.0,3.0,95,0.00,,,1.06,,2013-06-23 08:02:00,
2013-06-23 03:12:00,66.0,65.0,30.03,SW,233,0.0,3.0,95,0.00,,,1.06,,2013-06-23 08:12:00,
2013-06-23 03:22:00,66.0,65.0,30.03,SW,216,0.0,2.0,95,0.00,,,1.06,,2013-06-23 08:22:00,
2013-06-23 03:34:00,66.0,65.0,30.03,WSW,238,0.0,3.0,95,0.00,,,1.06,,2013-06-23 08:34:00,
2013-06-23 03:43:00,66.0,65.0,30.03,WSW,238,0.0,3.0,95,0.00,,,1.06,,2013-06-23 08:43:00,
2013-06-23 03:53:00,66.0,65.0,30.02,WSW,238,0.0,2.0,95,0.00,,,1.06,,2013-06-23 08:53:00,
2013-06-23 04:02:00,66.0,65.0,30.01,South,170,0.0,1.0,95,0.00,,,1.06,,2013-06-23 09:02:00,
2013-06-23 04:12:00,66.0,65.0,30.01,South,170,0.0,1.0,95,0.00,,,1.06,,2013-06-23 09:12:00,
2013-06-23 04:22:00,66.0,65.0,30.02,South,170,0.0,0.0,95,0.00,,,1.06,,2013-06-23 09:22:00,
2013-06-23 04:34:00,66.0,65.0,30.02,SSE,161,0.0,3.0,95,0.00,,,1.06,,2013-06-23 09:34:00,
2013-06-23 04:43:00,66.0,65.0,30.02,SSE,161,0.0,3.0,95,0.00,,,1.06,,2013-06-23 09:43:00,
2013-06-23 04:54:00,66.0,65.0,30.01,SSE,153,1.0,3.0,95,0.01,,,1.07,,2013-06-23 09:54:00,
2013-06-23 05:02:00,66.0,65.0,30.01,SE,132,2.0,4.0,96,0.01,,,1.07,,2013-06-23 10:02:00,
2013-06-23 05:11:00,66.0,65.0,30.01,SE,132,2.0,4.0,96,0.01,,,1.07,,2013-06-23 10:11:00,
2013-06-23 05:22:00,66.0,65.0,30.01,SE,136,1.0,3.0,96,0.01,,,1.07,,2013-06-23 10:22:00,
2013-06-23 05:34:00,66.0,65.0,30.01,SSE,158,1.0,4.0,96,0.01,,,1.07,,2013-06-23 10:34:00,
2013-06-23 05:43:00,66.0,65.0,30.01,SSE,158,1.0,4.0,96,0.01,,,1.07,,2013-06-23 10:43:00,
2013-06-23 05:53:00,66.0,65.0,30.02,SSW,210,0.0,3.0,96,0.00,,,1.07,,2013-06-23 10:53:00,
2013-06-23 06:01:00,66.0,65.0,30.04,SSW,210,0.0,1.0,96,0.00,,,1.07,,2013-06-23 11:01:00,
2013-06-23 06:11:00,66.0,65.0,30.04,SSW,210,0.0,1.0,96,0.00,,,1.07,,2013-06-23 11:11:00,
2013-06-23 06:22:00,66.0,65.0,30.05,ENE,65,0.0,3.0,96,0.00,,,1.07,,2013-06-23 11:22:00,
2013-06-23 06:33:00,66.0,65.0,30.04,SSE,161,1.0,3.0,96,0.00,,,1.07,,2013-06-23 11:33:00,
2013-06-23 06:43:00,66.0,65.0,30.04,SSE,161,1.0,3.0,96,0.00,,,1.07,,2013-06-23 11:43:00,
2013-06-23 06:53:00,66.0,65.0,30.04,ESE,113,1.0,3.0,96,0.00,,,1.07,,2013-06-23 11:53:00,
2013-06-23 07:01:00,67.0,66.0,30.04,South,170,1.0,3.0,96,0.00,,,1.07,,2013-06-23 12:01:00,
2013-06-23 07:12:00,67.0,66.0,30.04,South,170,1.0,3.0,96,0.00,,,1.07,,2013-06-23 12:12:00,
2013-06-23 07:22:00,67.0,66.0,30.03,SSE,162,1.0,3.0,96,0.00,,,1.07,,2013-06-23 12:22:00,
2013-06-23 07:33:00,68.0,67.0,30.03,SSW,213,2.0,5.0,96,0.00,,,1.07,,2013-06-23 12:33:00,
2013-06-23 07:42:00,68.0,67.0,30.03,SSW,213,2.0,5.0,96,0.00,,,1.07,,2013-06-23 12:42:00,
2013-06-23 07:53:00,69.0,67.0,30.01,SSE,157,2.0,7.0,94,0.00,,,1.07,,2013-06-23 12:53:00,
2013-06-23 08:02:00,70.0,67.0,30.02,SE,138,4.0,7.0,91,0.00,,,1.07,,2013-06-23 13:02:00,
2013-06-23 08:11:00,70.0,67.0,30.02,SE,138,4.0,7.0,91,0.00,,,1.07,,2013-06-23 13:11:00,
2013-06-23 08:23:00,71.0,68.0,30.01,South,171,2.0,6.0,89,0.00,,,1.07,,2013-06-23 13:23:00,
2013-06-23 08:34:00,72.0,68.0,30.01,SSE,153,2.0,8.0,88,0.00,,,1.07,,2013-06-23 13:34:00,
2013-06-23 08:43:00,72.0,68.0,30.01,SSE,153,2.0,8.0,88,0.00,,,1.07,,2013-06-23 13:43:00,
2013-06-23 08:54:00,73.0,69.0,30.02,SSW,197,2.0,6.0,86,0.00,,,1.07,,2013-06-23 13:54:00,
2013-06-23 09:04:00,74.0,68.0,30.01,SW,214,3.0,6.0,82,0.00,,,1.07,,2013-06-23 14:04:00,
2013-06-23 09:11:00,74.0,68.0,30.01,SW,214,3.0,6.0,82,0.00,,,1.07,,2013-06-23 14:11:00,
2013-06-23 09:22:00,75.0,68.0,30.00,South,180,4.0,9.0,80,0.00,,,1.07,,2013-06-23 14:22:00,
2013-06-23 09:34:00,75.0,68.0,30.00,SSW,209,2.0,9.0,79,0.00,,,1.07,,2013-06-23 14:34:00,
2013-06-23 09:44:00,75.0,68.0,30.00,SSW,209,2.0,9.0,79,0.00,,,1.07,,2013-06-23 14:44:00,
2013-06-23 09:52:00,76.0,69.0,29.99,South,170,4.0,9.0,78,0.00,,,1.07,,2013-06-23 14:52:00,
2013-06-23 10:05:00,76.0,68.0,30.00,SSW,200,5.0,12.0,77,0.00,,,1.07,,2013-06-23 15:05:00,
2013-06-23 10:11:00,76.0,68.0,30.00,SSW,200,5.0,12.0,77,0.00,,,1.07,,2013-06-23 15:11:00,
2013-06-23 10:23:00,76.0,69.0,30.01,West,265,3.0,10.0,79,0.00,,,0.97,,2013-06-23 15:23:00,
2013-06-23 10:35:00,77.0,69.0,30.02,WSW,247,5.0,13.0,76,0.00,,,0.97,,2013-06-23 15:35:00,
2013-06-23 10:43:00,77.0,69.0,30.02,WSW,247,5.0,13.0,76,0.00,,,0.97,,2013-06-23 15:43:00,
2013-06-23 10:53:00,78.0,70.0,30.02,SSW,196,6.0,11.0,76,0.00,,,0.97,,2013-06-23 15:53:00,
2013-06-23 11:06:00,78.0,69.0,30.03,SSW,209,6.0,12.0,75,0.00,,,0.97,,2013-06-23 16:06:00,
2013-06-23 11:12:00,78.0,69.0,30.03,SSW,209,6.0,12.0,75,0.00,,,0.97,,2013-06-23 16:12:00,
2013-06-23 11:22:00,79.0,70.0,30.02,SSW,210,3.0,9.0,74,0.00,,,0.87,,2013-06-23 16:22:00,
2013-06-23 11:36:00,79.0,71.0,30.01,SW,230,2.0,8.0,77,0.00,,,0.87,,2013-06-23 16:36:00,
2013-06-23 11:43:00,79.0,71.0,30.01,SW,230,2.0,8.0,77,0.00,,,0.87,,2013-06-23 16:43:00,
2013-06-23 11:53:00,79.0,71.0,30.02,West,279,7.0,11.0,77,0.00,,,0.87,,2013-06-23 16:53:00,
2013-06-23 12:04:00,80.0,70.0,30.02,South,181,4.0,15.0,72,0.00,,,0.87,,2013-06-23 17:04:00,
2013-06-23 12:12:00,80.0,70.0,30.02,South,181,4.0,15.0,72,0.00,,,0.87,,2013-06-23 17:12:00,
2013-06-23 12:22:00,81.0,72.0,30.02,SSW,201,5.0,15.0,73,0.00,,,0.27,,2013-06-23 17:22:00,
2013-06-23 12:33:00,82.0,70.0,30.02,WSW,246,4.0,12.0,68,0.00,,,0.27,,2013-06-23 17:33:00,
2013-06-23 12:43:00,82.0,70.0,30.02,WSW,246,4.0,12.0,68,0.00,,,0.27,,2013-06-23 17:43:00,
2013-06-23 12:53:00,82.0,72.0,30.03,SSE,165,7.0,17.0,71,0.00,,,0.27,,2013-06-23 17:53:00,
2013-06-23 13:01:00,82.0,72.0,30.03,SW,223,5.0,14.0,71,0.00,,,0.27,,2013-06-23 18:01:00,
2013-06-23 13:12:00,82.0,72.0,30.03,SW,223,5.0,14.0,71,0.00,,,0.27,,2013-06-23 18:12:00,
2013-06-23 13:22:00,81.0,72.0,30.03,WSW,242,3.0,12.0,75,0.00,,,0.05,,2013-06-23 18:22:00,
2013-06-23 13:34:00,81.0,72.0,30.02,NW,313,1.0,7.0,75,0.00,,,0.05,,2013-06-23 18:34:00,
2013-06-23 13:42:00,81.0,72.0,30.02,NW,313,1.0,7.0,75,0.00,,,0.05,,2013-06-23 18:42:00,
2013-06-23 13:53:00,80.0,72.0,30.02,SW,225,3.0,7.0,77,0.00,,,0.05,,2013-06-23 18:53:00,
2013-06-23 14:01:00,81.0,72.0,30.01,WSW,244,5.0,15.0,75,0.00,,,0.05,,2013-06-23 19:01:00,
2013-06-23 14:11:00,81.0,72.0,30.01,WSW,244,5.0,15.0,75,0.00,,,0.05,,2013-06-23 19:11:00,
2013-06-23 14:21:00,82.0,73.0,30.00,SSW,201,4.0,12.0,74,0.00,,,0.02,,2013-06-23 19:21:00,
2013-06-23 14:32:00,83.0,73.0,30.00,SW,235,5.0,11.0,72,0.00,,,0.02,,2013-06-23 19:32:00,
2013-06-23 14:43:00,83.0,73.0,30.00,SW,235,5.0,11.0,72,0.00,,,0.02,,2013-06-23 19:43:00,
2013-06-23 14:53:00,82.0,73.0,30.00,WSW,256,5.0,17.0,75,0.00,,,0.02,,2013-06-23 19:53:00,
2013-06-23 15:02:00,80.0,71.0,29.99,SW,231,3.0,13.0,73,0.00,,,0.02,,2013-06-23 20:02:00,
2013-06-23 15:12:00,80.0,71.0,29.99,SW,231,3.0,13.0,73,0.00,,,0.02,,2013-06-23 20:12:00,
2013-06-23 15:24:00,82.0,72.0,29.98,SSW,211,7.0,15.0,72,0.00,,,0.01,,2013-06-23 20:24:00,
2013-06-23 15:33:00,82.0,73.0,29.97,SSW,192,6.0,14.0,75,0.00,,,0.01,,2013-06-23 20:33:00,
2013-06-23 15:42:00,82.0,73.0,29.97,SSW,192,6.0,14.0,75,0.00,,,0.01,,2013-06-23 20:42:00,
2013-06-23 15:53:00,81.0,72.0,29.96,SW,229,8.0,15.0,75,0.00,,,0.01,,2013-06-23 20:53:00,
2013-06-23 16:01:00,82.0,73.0,29.96,SW,222,7.0,14.0,74,0.00,,,0.01,,2013-06-23 21:01:00,
2013-06-23 16:11:00,82.0,73.0,29.96,SW,222,7.0,14.0,74,0.00,,,0.01,,2013-06-23 21:11:00,
2013-06-23 16:22:00,82.0,72.0,29.96,SSW,196,5.0,12.0,73,0.00,,,0.01,,2013-06-23 21:22:00,
2013-06-23 16:34:00,82.0,71.0,29.95,SSW,192,4.0,16.0,69,0.00,,,0.01,,2013-06-23 21:34:00,
2013-06-23 16:44:00,82.0,71.0,29.95,SSW,192,4.0,16.0,69,0.00,,,0.01,,2013-06-23 21:44:00,
2013-06-23 16:52:00,82.0,69.0,29.95,SSW,202,6.0,12.0,64,0.00,,,0.01,,2013-06-23 21:52:00,
2013-06-23 17:01:00,82.0,69.0,29.96,SSW,192,4.0,9.0,66,0.00,,,0.01,,2013-06-23 22:01:00,
2013-06-23 17:11:00,82.0,69.0,29.96,SSW,192,4.0,9.0,66,0.00,,,0.01,,2013-06-23 22:11:00,
2013-06-23 17:22:00,82.0,71.0,29.97,SSW,207,4.0,11.0,70,0.00,,,0.01,,2013-06-23 22:22:00,
2013-06-23 17:32:00,81.0,69.0,29.97,SW,222,7.0,17.0,67,0.00,,,0.01,,2013-06-23 22:32:00,
2013-06-23 17:43:00,81.0,69.0,29.97,SW,222,7.0,17.0,67,0.00,,,0.01,,2013-06-23 22:43:00,
2013-06-23 17:53:00,80.0,69.0,29.97,SSW,211,4.0,11.0,70,0.00,,,0.01,,2013-06-23 22:53:00,
2013-06-23 18:01:00,80.0,70.0,29.97,SSW,201,7.0,14.0,71,0.00,,,0.01,,2013-06-23 23:01:00,
2013-06-23 18:11:00,80.0,70.0,29.97,SSW,201,7.0,14.0,71,0.00,,,0.01,,2013-06-23 23:11:00,
2013-06-23 18:22:00,80.0,70.0,29.97,SW,215,6.0,12.0,72,0.00,,,0.01,,2013-06-23 23:22:00,
2013-06-23 18:33:00,78.0,70.0,29.97,SW,215,5.0,9.0,76,0.00,,,0.01,,2013-06-23 23:33:00,
2013-06-23 18:44:00,78.0,70.0,29.97,SW,215,5.0,9.0,76,0.00,,,0.01,,2013-06-23 23:44:00,
2013-06-23 18:52:00,78.0,71.0,29.97,South,182,4.0,7.0,79,0.00,,,0.01,,2013-06-23 23:52:00,
2013-06-23 19:01:00,77.0,70.0,29.96,South,175,3.0,7.0,78,0.00,,,0.01,,2013-06-24 00:01:00,
2013-06-23 19:11:00,77.0,70.0,29.96,South,175,3.0,7.0,78,0.00,,,0.01,,2013-06-24 00:11:00,
2013-06-23 19:22:00,77.0,70.0,29.97,SSE,164,2.0,7.0,78,0.00,,,0.01,,2013-06-24 00:22:00,
2013-06-23 19:33:00,76.0,69.0,29.96,SSE,162,2.0,7.0,79,0.00,,,0.01,,2013-06-24 00:33:00,
2013-06-23 19:42:00,76.0,69.0,29.96,SSE,162,2.0,7.0,79,0.00,,,0.01,,2013-06-24 00:42:00,
2013-06-23 19:52:00,75.0,68.0,29.96,SSW,199,1.0,5.0,79,0.00,,,0.01,,2013-06-24 00:52:00,
2013-06-23 20:02:00,75.0,68.0,29.96,SSE,155,2.0,5.0,80,0.00,,,0.01,,2013-06-24 01:02:00,
2013-06-23 20:11:00,75.0,68.0,29.96,SSE,155,2.0,5.0,80,0.00,,,0.01,,2013-06-24 01:11:00,
2013-06-23 20:22:00,74.0,68.0,29.95,SSE,159,1.0,6.0,81,0.00,,,0.01,,2013-06-24 01:22:00,
2013-06-23 20:32:00,74.0,68.0,29.95,SSE,167,2.0,4.0,82,0.00,,,0.01,,2013-06-24 01:32:00,
2013-06-23 20:42:00,74.0,68.0,29.95,SSE,167,2.0,4.0,82,0.00,,,0.01,,2013-06-24 01:42:00,
2013-06-23 20:53:00,74.0,68.0,29.95,South,169,0.0,5.0,83,0.00,,,0.01,,2013-06-24 01:53:00,
2013-06-23 21:02:00,74.0,68.0,29.95,SSE,167,1.0,4.0,83,0.00,,,0.01,,2013-06-24 02:02:00,
2013-06-23 21:11:00,74.0,68.0,29.95,SSE,167,1.0,4.0,83,0.00,,,0.01,,2013-06-24 02:11:00,
2013-06-23 21:22:00,74.0,68.0,29.96,SW,216,4.0,7.0,81,0.00,,,0.01,,2013-06-24 02:22:00,
2013-06-23 21:33:00,74.0,68.0,29.97,SSW,201,4.0,7.0,81,0.00,,,0.01,,2013-06-24 02:33:00,
2013-06-23 21:42:00,74.0,68.0,29.97,SSW,201,4.0,7.0,81,0.00,,,0.01,,2013-06-24 02:42:00,
2013-06-23 21:53:00,74.0,67.0,29.97,SW,221,3.0,9.0,80,0.00,,,0.01,,2013-06-24 02:53:00,
2013-06-23 22:11:00,74.0,67.0,29.98,SW,223,3.0,7.0,80,0.00,,,0.01,,2013-06-24 03:11:00,
2013-06-23 22:22:00,74.0,67.0,29.98,SW,222,3.0,8.0,80,0.00,,,0.01,,2013-06-24 03:22:00,
2013-06-23 22:33:00,74.0,67.0,29.99,SSW,203,3.0,9.0,80,0.00,,,0.01,,2013-06-24 03:33:00,
2013-06-23 22:43:00,74.0,67.0,29.99,SSW,203,3.0,9.0,80,0.00,,,0.01,,2013-06-24 03:43:00,
2013-06-23 22:53:00,73.0,67.0,29.99,WSW,238,4.0,9.0,81,0.00,,,0.01,,2013-06-24 03:53:00,
2013-06-23 23:02:00,73.0,68.0,29.99,SSE,155,2.0,5.0,83,0.00,,,0.01,,2013-06-24 04:02:00,
2013-06-23 23:12:00,73.0,68.0,29.99,SSE,155,2.0,5.0,83,0.00,,,0.01,,2013-06-24 04:12:00,
2013-06-23 23:22:00,72.0,67.0,29.99,SSW,209,1.0,6.0,84,0.00,,,0.01,,2013-06-24 04:22:00,
2013-06-23 23:33:00,72.0,67.0,29.99,SSW,209,1.0,6.0,84,0.00,,,0.01,,2013-06-24 04:33:00,
2013-06-23 23:43:00,72.0,67.0,30.00,SSW,197,2.0,5.0,85,0.00,,,0.01,,2013-06-24 04:43:00,
2013-06-23 23:53:00,72.0,68.0,30.00,SSW,213,2.0,5.0,86,0.00,,,0.01,,2013-06-24 04:53:00,